This is the latest recevied weather packets stored in our database for station/object EA7OC-10. If no packets are shown the sender has not sent any weather packets the latest 10 day(s).
| Time | Temp. | Humidity | Pressure | Rain* | Wind** | Luminosity | Snow |
|---|---|---|---|---|---|---|---|
| 1778002185 | 31.67° C | 27% | 1012.2 hPa | - | - | - | - |
| 1778001285 | 32.22° C | 27% | 1012.3 hPa | - | - | - | - |
| 1778000385 | 32.22° C | 27% | 1012 hPa | - | - | - | - |
| 1777999485 | 32.22° C | 28% | 1012.2 hPa | - | - | - | - |
| 1777998585 | 32.78° C | 27% | 1012.2 hPa | - | - | - | - |
| 1777997684 | 32.78° C | 29% | 1012.2 hPa | - | - | - | - |
| 1777996784 | 32.78° C | 29% | 1012.3 hPa | - | - | - | - |
| 1777995884 | 32.22° C | 29% | 1012.3 hPa | - | - | - | - |
| 1777994984 | 31.67° C | 29% | 1012.5 hPa | - | - | - | - |
| 1777994084 | 31.67° C | 28% | 1012.6 hPa | - | - | - | - |
| 1777993184 | 31.67° C | 29% | 1012.6 hPa | - | - | - | - |
| 1777992284 | 31.67° C | 29% | 1012.7 hPa | - | - | - | - |
| 1777991384 | 31.67° C | 29% | 1012.9 hPa | - | - | - | - |
| 1777990484 | 30.56° C | 30% | 1013.1 hPa | - | - | - | - |
| 1777989583 | 30° C | 29% | 1013.3 hPa | - | - | - | - |
| 1777988683 | 30° C | 30% | 1013.4 hPa | - | - | - | - |
| 1777987783 | 30° C | 30% | 1013.6 hPa | - | - | - | - |
| 1777986883 | 29.44° C | 29% | 1013.8 hPa | - | - | - | - |
| 1777985983 | 30° C | 30% | 1014.1 hPa | - | - | - | - |
| 1777985083 | 28.89° C | 31% | 1014.1 hPa | - | - | - | - |
| 1777984187 | 27.78° C | 31% | 1014.4 hPa | - | - | - | - |
| 1777983287 | 27.78° C | 30% | 1014.5 hPa | - | - | - | - |
| 1777982382 | 27.78° C | 30% | 1014.7 hPa | - | - | - | - |
| 1777981482 | 27.22° C | 31% | 1015 hPa | - | - | - | - |
| 1777980582 | 25.56° C | 31% | 1015.2 hPa | - | - | - | - |
* Rain since midnight (hover to see other rain measurements)
** Current wind speed in m/s (hover to see current wind gust speed)